Regional Weather Roundup
Issued by NWS Columbia, SC

Home | Current Version | Previous Version | Text Only | Print | Product List | Glossary On
Versions: 1 2 3 4 5 6 7 8 9 10 11 12 13 14 15 16 17 18 19 20 21 22 23 24 25 26 27 28 29 30 31 32 33 34 35 36 37 38 39 40 41 42 43 44 45 46 47 48 49 50
000
ASUS42 KCAE 290110
RWRCAE
REGIONAL WEATHER ROUNDUP
NATIONAL WEATHER SERVICE COLUMBIA SC
900 PM EDT SUN AUG 28 2016

NOTE: "FAIR" INDICATES FEW OR NO CLOUDS BELOW 12,000 FEET WITH NO
SIGNIFICANT WEATHER AND/OR OBSTRUCTIONS TO VISIBILITY.

NOT ALL STATIONS ARE QUALITY CONTROLLED BY THE NATIONAL
WEATHER SERVICE. USE DATA WITH CAUTION...ESPECIALLY
DEWPOINT OBSERVATIONS.

SCZ001>056-GAZ040-063>065-077-290200-
...UPSTATE SOUTH CAROLINA...

CITY           SKY/WX    TMP DP  RH WIND       PRES   REMARKS
ANDERSON       CLEAR     82  64  54 NE6       30.11R
LIBERTY        CLEAR     78  64  62 E3        30.12S
SPARTANBURG    CLEAR     79  61  53 NE5       30.12S
CLEMSON        CLEAR     82  67  60 NE5       30.13R
GREENVILLE     CLEAR     83  63  50 NE7       30.14R
GREENWOOD      CLEAR     80  64  58 NE6       30.11R
GREER          CLEAR     80  64  58 NE3       30.12S
ROCK HILL      CLEAR     80  61  52 NE3       30.13R
LAURENS        CLEAR     81  64  57 CALM      30.11R


...CENTRAL SOUTH CAROLINA...

CITY           SKY/WX    TMP DP  RH WIND       PRES   REMARKS
COLUMBIA APT   MOCLDY    85  69  58 E10       30.07R
COLUMBIA OWENS PTCLDY    86  68  54 VRB3      30.09R
MCENTIRE ANGB  MOCLDY    83  70  65 CALM      30.09R
ORANGEBURG     PTCLDY    82  72  71 VRB3      30.08R
SUMTER SHAW    MOCLDY    82  68  62 E3        30.06R
NEWBERRY       CLEAR     81  64  57 NE6       30.13R
AIKEN          FAIR      82  68  61 E3        30.12R
MANNING        FAIR      77  72  83 CALM      30.07S
LANCASTER      MOCLDY    82  64  54 NE6       30.11S
WINNSBORO      CLEAR     81  64  57 NE7       30.10R


...EASTERN AND COASTAL SOUTH CAROLINA...

CITY           SKY/WX    TMP DP  RH WIND       PRES   REMARKS
N MYRTLE BCH   PTCLDY    78  74  87 N7        30.07R
CONWAY         FAIR      75  73  94 CALM      30.09R FOG
MARION         FAIR      79  72  78 NE7       30.10R
HARTSVILLE     FAIR      79  68  69 NE3       30.09R
FLORENCE       CLEAR     82  70  66 E6        30.09R
DARLINGTON     CLOUDY    81  74  79 NE3       30.10
CHARLESTON APT PTCLDY    78  74  87 NE6       30.06R
MOUNT PLEASANT FAIR      79  77  94 CALM      30.06S
WALTERBORO     PTCLDY    79  79 100 E3        30.07S
BEAUFORT       PTCLDY    79  75  87 NE5       30.05R


...EASTERN GEORGIA...

CITY           SKY/WX    TMP DP  RH WIND       PRES   REMARKS
AUGUSTA BUSH F CLOUDY    84  70  62 SE10      30.06R
AUGUSTA DANIEL CLOUDY    89  68  49 E12       30.08R
THOMSON        MOCLDY    86  71  59 MISG      30.11R
WASHINGTON     FAIR      84  70  61 NE5       30.08R
CLAXTON        FAIR      79  75  87 NE5       30.05R
STATESBORO     PTCLDY    82  75  78 E3        30.06R
SAVANNAH       MOCLDY    80  73  79 N6        30.05R


...SOUTHERN NORTH CAROLINA...

CITY           SKY/WX    TMP DP  RH WIND       PRES   REMARKS
CHARLOTTE      MOCLDY    82  61  48 VRB3      30.13S
MONROE         CLEAR     79  65  62 NE5       30.12R
WADESBORO      CLOUDY    80  70  70 CALM      30.11R
RUTHERFORDTON    N/A     78  65  64 CALM      30.17R
ASHEVILLE      CLEAR     75  65  70 CALM      30.22R

$$



USA.gov is the U.S. government's official web portal to all federal, state and local government web resources and services.